Location: Mountain View
(37.3861°N, 122.0839°W)
Time: 16:50:09
(UTC-07:00)

Envisat - Pass Details

Date: 18 May 2026
Orbit: 761 x 763 km, 98.4° (Epoch: 7 June)

Event Time Altitude Azimuth Distance (km) Brightness Sun altitude
Rises 03:21:24 0° 18° (NNE) 3,229 7.4 -24.6°
Reaches altitude 10° 03:23:46 10° 23° (NNE) 2,299 6.5 -24.3°
Maximum altitude 03:28:43 53° 100° (E) 927 3.5 -23.7°
Enters shadow 03:30:20 38° 153° (SSE) 1,153 3.7 -23.5°
